Lapse_Rate
4.7 4.5 4.3 4.2 4.1 3.9 3.8 3.9 3.8 3.7 4.5 5.0 4.8 5.3 5.7 5.8 5.8 5.6 5.6 5.6 6.7 6.9 7.1 6.4 6.2 6.4 6.1 6.1 6.4 6.6 6.1 5.7 6.7 7.1 7.4 8.3 7.8 7.7 7.7 6.9 7.1 7.4 6.7 6.8 7.6
4.7 4.5 4.3 4.1 4.2 4.0 3.9 4.1 3.8 3.7 4.2 4.8 4.9 5.4 5.7 5.9 6.0 5.6 5.6 5.9 6.8 7.0 6.7 6.5 6.1 6.5 6.4 6.2 6.5 6.5 6.3 6.1 7.0 7.4 7.7 8.6 8.1 7.8 7.4 6.6 7.0 7.1 6.7 7.2 7.6
4.7 4.4 4.4 4.3 4.2 4.1 3.9 3.9 3.8 3.9 4.3 4.6 4.8 5.4 6.0 5.9 5.8 5.3 6.0 6.1 6.9 7.1 6.8 6.4 6.3 6.2 6.5 6.5 6.5 6.5 6.2 5.8 7.0 8.0 7.2 7.5 7.7 8.0 7.2 6.4 7.0 7.2 7.0 7.1 7.6
4.6 4.3 4.5 4.3 4.2 4.1 3.9 4.0 4.0 3.9 4.2 4.5 4.7 5.3 5.9 6.1 5.4 5.9 6.1 6.3 6.8 7.4 7.1 6.6 6.9 6.3 6.4 6.5 6.7 6.4 6.3 6.3 6.9 7.1 6.3 6.6 6.5 7.0 6.8 7.1 6.9 7.2 7.1 7.4 7.2
4.7 4.4 4.4 4.3 4.3 4.2 3.9 4.1 3.9 3.8 4.0 4.4 4.6 5.4 5.9 6.1 5.4 6.3 6.3 6.4 7.0 7.4 7.3 7.0 6.9 6.3 6.5 6.7 6.7 6.5 6.4 6.7 6.7 6.6 6.1 6.0 6.4 5.5 6.8 7.8 7.2 6.8 7.3 7.1 7.4
4.8 4.5 4.4 4.4 4.3 4.2 3.9 4.0 3.8 3.6 4.2 4.3 4.4 5.5 5.6 5.6 6.0 6.1 6.3 6.5 7.0 7.7 7.3 7.0 6.9 6.7 6.3 6.3 6.8 6.4 6.5 6.6 6.8 6.7 6.2 5.9 5.9 6.2 5.7 6.4 7.0 6.0 6.6 6.9 7.1
4.8 4.5 4.6 4.4 4.4 4.2 4.0 4.1 3.7 3.6 4.0 4.2 4.4 5.3 5.7 5.9 6.1 6.1 6.3 6.4 7.1 7.8 7.6 7.2 6.7 7.0 6.3 6.5 6.6 6.6 6.5 6.2 6.1 6.1 6.2 5.9 6.1 5.6 6.5 6.3 6.6 5.9 6.2 6.4 6.9
5.0 4.7 4.5 4.6 4.6 4.2 4.0 4.0 3.8 3.9 4.0 4.1 4.6 5.3 5.6 6.0 6.2 6.1 6.3 6.2 7.2 7.8 7.6 7.4 7.1 6.8 6.5 6.3 6.5 6.4 6.2 6.3 5.7 6.1 6.1 6.0 6.0 5.3 5.9 6.4 6.4 5.7 5.8 6.0 6.5
5.1 4.7 4.5 4.5 4.6 4.3 4.0 3.8 3.5 4.0 3.8 3.9 4.4 5.7 5.6 6.0 6.1 6.2 6.3 6.7 7.3 7.9 7.6 6.9 7.0 6.6 6.5 6.6 6.2 6.1 6.2 6.3 6.1 6.3 6.2 6.0 6.0 6.6 6.4 6.0 6.5 6.1 5.8 6.0 6.0
5.1 4.8 4.6 4.5 4.6 4.3 3.9 3.5 3.3 3.7 3.8 3.7 4.6 5.7 6.0 6.0 6.1 6.3 6.3 7.2 7.8 7.8 7.7 7.1 6.8 6.5 6.5 6.6 6.4 6.1 6.1 6.4 6.5 6.4 6.6 6.4 6.3 6.7 7.0 7.1 6.7 6.0 6.0 6.1 6.0
5.0 4.8 4.7 4.6 4.5 4.2 3.7 3.5 3.1 2.1 3.1 3.2 4.8 6.0 5.9 6.0 6.1 6.2 6.6 7.4 7.8 7.7 7.5 7.4 6.7 6.5 6.6 6.4 6.6 6.2 6.3 6.8 7.0 6.9 6.9 6.6 6.3 7.1 7.1 7.2 7.1 6.4 6.4 6.3 6.1
5.0 4.7 4.7 4.6 4.4 4.2 3.6 3.5 2.9 2.5 3.3 4.1 6.0 6.1 6.0 6.1 6.0 5.9 6.6 7.2 7.4 7.4 7.5 7.3 6.4 6.2 6.5 6.4 6.5 6.2 6.5 6.8 7.4 7.4 7.0 6.8 7.1 7.6 7.6 6.9 7.0 6.5 6.4 6.3 6.2
4.9 4.7 4.7 4.5 4.3 4.1 3.8 3.4 2.9 2.2 2.6 3.8 5.6 6.1 6.2 6.0 6.1 5.9 6.5 6.9 7.3 7.5 7.4 7.3 6.9 6.3 6.4 6.2 6.5 6.3 6.4 6.9 7.3 7.6 7.0 7.1 6.8 7.1 7.3 7.1 7.1 6.8 6.5 6.4 6.3
4.9 4.7 4.7 4.4 4.3 3.9 3.6 3.1 2.8 2.2 2.5 3.9 5.2 5.8 6.5 6.1 6.1 6.2 6.6 7.1 7.3 7.5 7.5 7.4 7.1 6.8 6.6 6.4 6.3 6.3 6.3 6.8 6.8 7.1 6.3 6.3 6.4 7.0 6.9 6.7 6.7 6.4 6.3 6.3 6.3
5.0 4.8 4.7 4.5 4.2 3.7 3.3 2.9 2.8 2.1 3.4 3.3 5.0 6.6 6.5 6.4 6.1 6.5 6.9 7.2 7.5 7.2 6.9 7.3 7.0 7.0 6.7 6.8 6.7 6.4 6.7 7.3 6.9 7.1 6.9 6.9 7.0 6.9 7.4 7.1 6.7 6.2 6.0 6.2 6.1
5.1 4.9 4.8 4.5 4.4 3.9 3.1 2.7 2.5 1.9 2.7 3.7 5.3 6.4 6.3 6.0 6.2 6.4 6.9 7.0 7.0 6.9 6.7 7.2 7.2 7.2 7.0 6.7 6.4 6.6 6.6 7.1 6.7 6.9 6.5 6.8 7.0 7.9 7.4 6.8 7.0 6.5 6.2 6.1 6.1
5.1 5.1 4.8 4.4 4.0 3.6 2.9 2.7 2.0 2.3 2.0 3.4 5.4 6.1 6.3 6.3 6.1 6.4 6.3 6.8 6.7 6.9 7.0 7.0 7.1 7.1 7.0 6.9 6.4 6.3 6.7 6.6 6.9 6.6 6.7 7.5 7.5 7.9 8.3 8.1 7.4 6.9 6.6 6.4 6.3
5.1 5.2 4.8 4.5 4.1 3.5 2.8 2.6 2.3 1.8 1.8 3.0 5.6 6.1 6.3 6.4 6.1 6.2 6.1 6.9 7.2 7.1 7.0 7.3 7.0 7.0 6.9 6.7 6.5 6.6 6.3 6.6 6.5 6.2 7.1 7.4 6.8 8.0 7.8 7.4 7.7 7.4 7.0 6.6 6.2
5.1 5.2 4.9 4.5 4.1 3.5 2.7 2.1 1.6 1.5 1.5 2.4 5.4 6.3 6.1 6.4 6.4 6.1 6.5 6.7 6.9 7.4 7.1 7.4 7.0 6.8 6.7 6.6 6.6 6.4 6.2 6.4 6.3 7.9 7.6 7.4 7.6 8.2 7.4 7.2 7.3 7.2 7.0 6.8 6.5
5.0 5.2 4.9 4.5 3.9 3.3 2.9 1.6 1.8 1.5 1.5 2.7 5.3 5.8 6.1 6.4 6.4 6.3 6.6 7.0 6.9 7.2 7.1 7.2 6.9 6.5 6.7 6.5 6.4 6.5 6.5 6.6 6.6 6.7 7.2 7.6 8.0 8.4 8.4 7.8 7.3 7.1 7.0 6.9 6.6
5.0 5.0 4.9 4.3 3.9 3.6 2.2 1.7 1.5 1.3 1.5 2.7 4.8 5.5 5.9 6.1 6.4 6.4 6.7 6.9 6.7 7.0 6.8 7.2 7.1 6.6 6.4 6.6 6.7 6.5 6.0 6.7 6.8 7.5 6.7 6.8 7.9 7.5 7.6 7.4 6.9 6.9 7.2 7.1 7.0
5.0 5.0 4.8 4.3 3.7 2.9 2.1 1.9 1.4 1.4 1.5 1.9 4.6 5.6 6.0 6.1 6.2 6.5 6.7 6.9 6.5 6.9 6.8 6.9 6.9 6.3 6.5 6.5 6.3 6.8 6.6 6.7 6.8 7.5 7.2 6.9 6.7 7.3 7.8 7.6 7.8 7.5 7.4 7.2 7.1
5.0 5.0 4.8 4.4 3.9 3.0 2.4 2.0 1.7 1.7 1.8 2.4 4.4 5.3 5.6 5.8 6.3 6.4 6.5 6.8 6.8 6.8 6.9 6.7 6.7 6.6 6.3 6.3 6.2 6.3 6.7 6.9 6.8 7.0 7.0 6.7 7.1 7.3 7.5 7.5 7.5 7.5 7.4 7.1 7.0
5.0 4.9 4.8 4.5 3.9 3.5 2.7 2.2 1.7 1.9 1.9 2.5 4.2 5.5 5.9 5.6 5.8 6.3 6.3 6.4 6.5 6.4 6.5 6.5 6.8 6.5 6.8 7.0 7.4 7.0 7.2 7.0 7.0 7.2 7.2 6.8 7.0 7.5 7.8 7.5 7.6 7.3 7.1 6.9 6.7
4.9 4.9 4.9 4.4 4.0 3.6 2.9 2.4 1.9 1.8 1.9 2.5 3.7 5.5 6.1 5.9 5.9 6.3 6.4 6.5 6.4 6.6 6.6 6.4 6.7 6.5 6.6 6.7 6.9 6.9 7.1 7.3 7.4 7.7 7.6 7.5 7.8 7.1 6.8 7.0 7.1 7.2 7.4 7.2 7.2
4.9 4.9 5.0 4.7 4.2 4.0 3.1 2.5 2.2 2.0 2.3 2.6 4.0 5.3 6.4 6.3 5.9 5.7 6.3 6.4 6.5 6.5 6.3 6.5 6.4 6.5 6.8 6.9 6.8 6.5 6.8 7.1 7.5 7.6 7.7 7.8 7.4 7.1 6.8 6.8 6.9 7.1 7.3 7.3 7.2
5.0 4.9 5.1 4.9 4.5 4.1 3.4 2.9 2.5 2.2 2.6 3.2 4.3 5.6 6.5 6.4 6.4 6.4 6.1 6.1 6.1 6.3 6.6 6.5 6.5 6.5 6.7 6.8 6.6 6.8 6.9 6.6 6.8 7.0 7.1 7.0 6.8 6.5 6.9 6.7 6.8 6.7 7.4 7.4 7.4
Wind_Speed
14 14 14 15 16 16 16 17 15 14 16 17 16 15 14 12 10 8 12 2 5 6 8 12 7 9 11 13 14 9 3 11 17 18 17 14 13 8 7 9 5 4 12 12 13
15 15 15 15 15 16 16 16 15 17 17 16 15 13 13 9 10 13 2 3 6 12 9 9 11 10 11 8 7 10 6 10 12 17 12 5 15 11 6 12 7 7 6 16 12
15 16 15 15 15 16 17 17 17 17 17 14 11 10 7 7 9 4 4 4 7 11 11 12 7 12 14 13 11 10 12 13 14 15 12 3 12 14 11 11 11 11 8 11 12
15 17 15 14 16 16 16 16 16 16 13 10 8 6 5 7 3 6 5 7 10 13 7 12 9 9 4 12 13 10 21 15 17 9 5 4 9 18 4 8 14 16 10 8 12
15 15 15 15 14 15 14 14 14 13 9 6 6 4 3 7 1 6 5 5 7 6 3 9 11 10 10 7 14 21 13 19 17 1 3 11 13 14 9 4 6 19 14 10 11
15 15 15 16 15 15 13 11 11 9 6 6 5 4 5 9 3 6 7 4 7 6 0 4 4 4 12 9 9 6 13 11 10 5 4 7 9 9 11 7 4 13 10 11 10
13 15 14 16 15 14 10 9 8 6 6 8 4 5 11 4 3 5 3 4 6 9 7 2 2 2 8 8 9 7 8 5 5 11 2 5 10 8 16 17 15 9 9 8 11
14 14 15 15 15 14 8 9 8 7 7 7 5 8 6 3 7 3 4 2 2 5 5 4 4 3 4 4 1 3 5 6 10 15 12 7 7 14 20 1 4 6 8 8 9
13 13 15 16 14 10 10 11 10 6 5 6 5 6 5 2 3 0 3 5 4 1 5 1 5 3 6 2 1 2 3 8 7 9 10 12 6 14 17 15 10 8 9 10 8
13 12 14 14 14 8 10 10 7 7 7 7 6 5 4 2 4 1 1 3 4 4 1 2 2 3 2 2 6 5 4 7 12 11 8 8 8 8 10 8 9 9 9 8 12
12 13 13 13 12 8 9 4 4 5 7 6 1 9 0 1 1 5 1 4 7 6 3 4 1 6 6 9 8 2 14 13 12 10 11 10 8 14 9 12 10 9 9 8 9
11 12 12 11 10 7 5 4 5 2 6 11 6 4 1 4 4 6 2 4 3 6 6 1 6 11 8 10 14 6 3 17 6 13 15 14 11 14 9 5 7 7 8 9 7
12 11 10 9 7 4 2 4 4 3 3 5 4 4 2 4 5 3 5 5 9 9 2 5 6 7 13 9 9 6 4 7 9 5 4 8 12 13 11 8 7 8 9 8 10
10 11 7 7 4 2 2 3 1 3 1 6 2 2 3 4 4 2 3 5 3 5 3 6 9 7 7 6 5 2 3 12 16 13 3 14 5 5 11 12 10 9 8 6 7
9 8 4 4 5 2 3 1 1 2 1 1 3 3 6 4 2 2 2 4 7 7 3 2 4 6 10 4 9 2 9 8 3 6 6 12 2 5 20 13 14 11 9 9 7
7 5 3 4 1 1 1 1 2 1 4 1 2 3 2 2 5 3 4 4 6 6 2 5 7 4 2 11 8 4 3 4 3 2 3 9 7 5 10 22 11 12 12 10 9
5 3 3 5 1 4 1 2 1 4 1 2 5 3 3 3 4 5 5 4 2 4 2 6 3 3 8 6 5 5 2 3 3 2 2 11 5 6 2 12 14 15 13 13 10
4 8 1 6 2 2 2 1 5 5 2 12 8 3 2 5 3 5 1 2 8 7 3 3 4 2 2 3 2 1 3 1 3 4 5 7 3 5 4 7 4 5 6 11 9
12 2 3 2 3 3 3 3 3 3 9 6 6 1 2 1 2 3 2 4 2 7 3 2 4 3 6 3 1 5 3 5 4 4 4 4 1 5 8 7 3 4 5 4 3
2 3 2 2 4 3 1 3 3 8 9 7 2 5 5 2 2 3 6 5 1 5 1 2 4 7 5 3 6 4 4 2 1 3 3 3 6 4 6 6 6 4 5 4 2
3 2 2 2 2 2 2 2 3 8 10 6 7 5 6 4 3 2 2 2 3 5 1 2 2 3 3 4 6 3 1 5 4 1 1 4 1 4 7 7 6 5 4 5 6
3 1 3 3 1 2 2 2 2 8 7 3 4 3 3 5 3 2 2 1 3 5 1 3 0 3 2 2 3 4 6 3 2 5 3 3 1 8 7 7 6 5 3 4 5
1 3 3 2 2 1 3 3 4 6 5 5 3 1 6 3 3 4 1 5 6 5 1 3 1 3 3 2 3 2 4 3 0 1 2 1 2 6 1 4 5 6 6 4 3
2 2 3 3 1 2 3 1 5 6 2 5 3 4 7 5 7 4 3 5 4 6 6 3 1 2 1 3 6 4 6 8 4 1 4 3 2 4 6 4 7 6 5 7 6
1 2 1 2 2 1 1 2 6 5 3 3 3 8 1 4 3 6 6 5 5 5 4 2 2 1 3 3 4 4 7 12 5 4 2 3 3 4 5 3 4 5 4 6 7
3 3 2 3 3 5 3 5 4 4 3 2 3 5 3 3 2 3 5 3 2 3 4 4 3 0 3 2 3 3 7 7 4 6 6 5 3 4 7 7 6 4 6 4 6
0 1 1 4 3 2 2 3 3 3 3 3 4 5 1 2 5 6 3 5 5 2 2 2 2 1 1 1 2 2 4 6 2 3 2 4 2 5 6 6 2 6 3 4 4
Wind_Direction
338 335 332 332 331 332 324 326 317 324 316 312 307 309 308 301 280 252 252 331 344 338 277 282 273 270 248 253 257 190 235 206 221 216 223 210 171 212 114 132 91 38 66 115 127
334 334 331 333 331 328 322 332 328 321 313 309 309 310 305 287 263 256 163 26 355 341 289 275 268 246 228 246 240 209 240 220 216 236 228 252 182 180 119 121 110 97 95 119 128
331 329 331 332 329 327 322 331 330 317 316 318 317 309 293 285 271 242 73 8 332 321 281 240 272 275 239 233 219 216 233 222 237 256 24 10 238 160 165 150 154 141 136 134 137
328 327 330 329 327 326 325 328 327 322 324 318 312 295 290 270 309 71 7 308 303 296 282 223 229 215 228 221 235 232 231 247 237 41 54 313 252 315 206 174 157 140 137 126 140
327 328 329 327 327 321 326 335 330 339 340 333 329 290 277 233 295 49 335 316 278 292 240 230 219 217 246 230 232 240 249 220 246 59 320 259 215 247 281 299 84 132 137 152 148
326 329 329 322 325 323 322 330 332 336 347 351 320 313 272 276 21 44 357 342 353 319 116 239 237 332 247 264 276 339 285 256 242 183 193 271 215 222 244 278 198 134 146 155 147
325 326 324 323 325 324 317 325 320 333 342 339 331 285 286 303 348 356 357 34 8 19 346 16 205 131 342 240 251 319 300 192 272 162 239 240 238 224 257 261 163 153 156 154 155
322 325 324 323 324 325 317 314 289 289 304 327 300 292 278 64 335 223 229 254 135 17 346 30 98 161 287 228 77 234 235 188 252 170 192 141 238 230 228 139 209 196 187 163 142
321 324 321 321 321 318 320 304 274 275 290 278 272 225 287 166 224 327 347 304 330 151 6 94 127 102 326 206 132 228 127 191 210 210 211 151 212 216 213 214 184 232 195 165 166
327 325 320 319 321 319 316 294 254 251 235 241 249 281 294 324 92 18 297 286 286 309 140 28 304 155 148 258 189 186 215 225 201 189 234 208 214 254 236 202 198 194 237 194 186
323 320 318 318 322 324 321 238 222 196 234 229 37 270 139 53 192 212 189 262 249 260 303 72 262 239 200 233 267 228 225 229 222 176 201 225 206 239 269 194 209 187 211 203 214
321 319 317 319 327 302 286 303 52 15 303 237 249 282 298 319 288 209 94 265 269 255 116 276 234 238 214 219 246 245 292 210 293 172 184 208 208 232 232 246 204 196 228 221 217
318 311 314 320 314 275 355 37 7 330 262 132 222 256 124 271 268 265 210 269 270 289 261 243 261 314 203 197 197 216 252 186 210 161 249 210 216 238 229 193 204 225 227 215 197
316 314 317 318 275 327 53 56 347 316 347 148 178 120 86 264 266 322 185 298 279 303 352 268 267 251 179 172 135 150 255 250 236 158 188 227 194 226 248 192 184 209 242 241 204
318 306 312 302 323 13 5 354 339 239 58 302 100 75 104 274 320 168 78 254 268 263 237 302 273 231 138 123 178 100 329 295 195 211 206 194 82 225 224 212 206 212 208 226 238
318 296 234 234 221 73 55 297 237 209 49 357 188 206 182 167 287 135 212 218 288 299 215 254 274 334 89 133 169 14 280 82 162 228 198 216 192 227 209 211 204 205 204 208 204
307 177 198 327 57 41 300 223 197 27 48 3 326 159 181 187 222 216 210 211 257 277 228 111 59 63 74 76 36 54 354 127 144 189 243 192 189 265 187 178 197 201 193 199 202
165 160 252 42 50 356 267 208 34 9 354 342 327 130 194 153 239 216 176 295 230 267 293 94 91 67 63 64 121 110 38 269 153 144 164 135 215 238 186 129 66 29 166 182 195
164 202 123 10 323 280 263 35 35 11 333 327 335 343 121 177 332 207 270 294 239 203 329 49 79 74 101 134 303 138 223 326 316 252 82 187 22 338 104 92 71 148 72 24 70
217 173 101 311 292 265 324 39 2 10 341 328 312 5 334 3 199 207 190 186 215 175 87 50 119 131 131 116 73 78 342 329 225 119 175 159 177 231 149 170 162 188 191 208 203
246 218 116 244 279 261 68 41 6 348 353 15 352 331 350 340 252 196 117 218 291 170 186 22 327 73 167 218 168 125 240 243 264 225 89 141 135 48 92 78 110 86 92 175 196
259 229 130 222 138 281 74 6 329 1 4 72 87 28 331 307 315 135 58 86 36 133 106 56 343 159 203 3 188 199 187 259 19 344 68 322 85 91 85 75 68 110 96 63 42
232 115 141 242 43 36 45 1 43 13 22 355 7 41 329 278 321 69 336 296 296 172 140 163 223 138 113 30 24 225 196 195 216 16 220 125 166 113 111 90 105 80 121 122 121
171 131 158 216 122 327 52 346 24 92 353 348 342 54 332 15 51 57 35 352 8 54 38 143 97 355 13 65 126 186 197 201 138 266 317 135 136 176 199 256 89 65 100 133 158
203 191 72 178 139 15 112 4 16 16 340 326 165 42 56 356 30 26 25 2 39 14 3 7 32 218 353 81 143 176 198 189 174 228 165 72 40 73 30 354 70 110 105 129 135
154 141 212 93 118 242 137 65 42 14 290 74 28 14 34 74 62 326 349 13 356 326 335 276 326 46 306 72 93 149 186 197 202 250 271 291 302 48 48 51 5 321 108 148 159
116 20 34 121 173 245 72 59 62 349 165 314 333 316 192 356 326 295 272 275 269 330 315 283 319 302 263 347 242 136 209 190 187 241 283 241 64 34 356 342 53 28 99 145 182